Voltar ao catálogo

CZ-6A DEB

AtivoPO
NORAD 60900·DEBRIS·🇨🇳 China

Lançado Aug 6, 2024 de Taiyuan Satellite Launch Center

Loading…

Próximas Passagens (próximas 24 horas)

TLE

AtualizadoSource: Space-Track

Época: Sep 14, 2026, 10:33 UTC

1 60900U 24140LF  26257.44004560  .00000196  00000-0  75572-4 0  9997
2 60900  88.9114 255.9774 0016465 185.1812 174.9214 14.26195440107872

Acompanhe CZ-6A DEB em tempo real com AllMySat

Download on the App Store